User: anonymous   Login
Location: Kaarina
(60.4167°N, 22.4167°E)
Time: 18:37:24
(UTC+03:00)
Language:

SPOT 1/Viking Rocket - Orbit

View from above orbital plane
View from above orbital plane
View from above satellite
View from above satellite

Ground track
Ground track

The orbit data is extracted from the following two-line orbital elements,

1 16615U 86019C   19287.20889556  .00000022  00000-0  24340-4 0  9994
2 16615  98.5116 352.8218 0012720  64.9114 359.9504 14.31768435760984
Epoch (UTC): 14 October 2019 05:00:48
Eccentricity: 0.0012720
inclination: 98.5116°
perigee height: 777 km
apogee height: 795 km
right ascension of ascending node: 352.8218°
argument of perigee: 64.9114°
revolutions per day: 14.31768435
mean anomaly at epoch: 359.9504°
orbit number at epoch: 76098

The dashed part of the orbit path shows where the satellite is in the earth's shadow,  

DLR